EW2286 Weather Reports


Display with metric or nautical units.
time (UTC)temp
F
wind
direction
speed
MPH
gust
MPH
rain 1hr
in
rain 24hr
in
rain mn
in
humidity
%
barometer
mb
20260510044541 52 205 5.0 10.0 0.00 0.12 0.00 100 1002.2
20260510043044 52 262 5.0 18.0 0.00 0.12 0.00 100 1001.9
20260510041549 52 199 7.0 14.0 0.00 0.12 0.00 100 1001.9
20260510040042 52 169 4.0 13.0 0.03 0.12 0.00 100 1001.7
20260510034538 52 208 4.0 9.0 0.10 0.12 0.12 100 1001.8
20260510033038 52 200 4.0 10.0 0.12 0.12 0.12 100 1001.7
20260510031537 52 127 4.0 12.0 0.12 0.12 0.12 100 1001.6
20260510030041 52 49 5.0 12.0 0.09 0.09 0.09 27 1002.1
20260510024544 54 174 7.0 16.0 0.02 0.02 0.02 63 1001.8
20260510023038 56 122 4.0 11.0 0.00 0.00 0.00 65 1001.0
20260510021538 57 177 5.0 13.0 0.00 0.00 0.00 65 1001.0
20260510020046 57 122 4.0 10.0 0.00 0.00 0.00 65 1001.3
20260510014536 57 182 3.0 9.0 0.00 0.00 0.00 64 1001.8
20260510013036 57 108 3.0 8.0 0.00 0.00 0.00 64 1001.7
20260510011540 58 148 3.0 8.0 0.00 0.00 0.00 63 1001.8
20260510010056 58 123 4.0 10.0 0.00 0.00 0.00 62 1001.8
20260510004538 59 64 2.0 9.0 0.00 0.00 0.00 60 1001.8
20260510003038 60 79 3.0 10.0 0.00 0.00 0.00 59 1001.8
20260510001536 60 185 3.0 10.0 0.00 0.00 0.00 58 1002.3
20260510000041 60 197 5.0 13.0 0.00 0.00 0.00 57 1002.5
20260509234543 61 172 8.0 21.0 0.00 0.00 0.00 56 1002.6
20260509233039 62 169 6.0 15.0 0.00 0.00 0.00 54 1002.7
20260509231539 62 196 8.0 15.0 0.00 0.00 0.00 52 1002.6
20260509230037 63 136 4.0 17.0 0.00 0.00 0.00 48 1002.3
20260509224536 63 188 5.0 12.0 0.00 0.00 0.00 43 1002.2
20260509223036 64 150 5.0 13.0 0.00 0.00 0.00 41 1002.2
20260509221559 64 165 5.0 14.0 0.00 0.00 0.00 41 1002.1
20260509220041 65 186 5.0 15.0 0.00 0.00 0.00 39 1002.1
20260509214540 65 189 6.0 17.0 0.00 0.00 0.00 38 1002.0
20260509213037 65 167 6.0 13.0 0.00 0.00 0.00 38 1002.3
20260509211538 65 114 7.0 19.0 0.00 0.00 0.00 37 1002.4
20260509210037 67 195 6.0 13.0 0.00 0.00 0.00 33 1002.3
20260509204536 67 127 6.0 14.0 0.00 0.00 0.00 34 1002.3
20260509203044 68 274 7.0 12.0 0.00 0.00 0.00 30 1002.4
20260509201540 66 124 6.0 14.0 0.00 0.00 0.00 30 1002.4
20260509200042 68 162 6.0 20.0 0.00 0.00 0.00 28 1002.6
20260509194537 67 117 5.0 16.0 0.00 0.00 0.00 27 1003.0
20260509193044 66 162 8.0 14.0 0.00 0.00 0.00 27 1003.1
20260509191534 66 111 5.0 13.0 0.00 0.00 0.00 27 1003.1
20260509190046 66 169 6.0 14.0 0.00 0.00 0.00 27 1003.5
20260509184540 66 203 8.0 19.0 0.00 0.00 0.00 27 1003.8
20260509183042 66 158 7.0 19.0 0.00 0.00 0.00 27 1004.2
20260509181540 66 186 5.0 13.0 0.00 0.00 0.00 30 1004.3
20260509180037 65 198 5.0 11.0 0.00 0.00 0.00 31 1004.6
20260509174532 65 106 5.0 15.0 0.00 0.00 0.00 29 1004.5
20260509173051 65 141 7.0 15.0 0.00 0.00 0.00 29 1004.7
20260509171547 64 201 4.0 13.0 0.00 0.00 0.00 31 1004.9
20260509170042 63 117 6.0 13.0 0.00 0.00 0.00 31 1005.4
20260509164546 64 117 5.0 16.0 0.00 0.00 0.00 31 1005.7
20260509163047 64 105 5.0 14.0 0.00 0.00 0.00 31 1005.8
20260509161538 63 95 6.0 17.0 0.00 0.00 0.00 29 1006.2
20260509160038 63 191 5.0 11.0 0.00 0.00 0.00 32 1006.6
20260509154542 63 217 5.0 14.0 0.00 0.00 0.00 36 1006.9
20260509153039 60 78 1.0 7.0 0.00 0.00 0.00 42 1007.4
20260509151538 60 121 2.0 10.0 0.00 0.00 0.00 40 1007.7
20260509150037 60 176 1.0 12.0 0.00 0.00 0.00 42 1007.9
20260509144546 58 229 5.0 12.0 0.00 0.00 0.00 43 1008.0
20260509143039 55 183 2.0 7.0 0.00 0.00 0.00 48 1008.2
20260509141545 55 0 2.0 6.0 0.00 0.00 0.00 47 1008.3
20260509140038 53 141 1.0 6.0 0.00 0.00 0.00 48 1008.3
20260509134550 52 87 1.0 5.0 0.00 0.00 0.00 50 1008.5
20260509133041 51 140 1.0 6.0 0.00 0.00 0.00 51 1008.5
20260509131556 50 58 2.0 5.0 0.00 0.00 0.00 52 1008.7
20260509130049 49 90 2.0 5.0 0.00 0.00 0.00 52 1008.8
20260509124540 48 110 3.0 5.0 0.00 0.00 0.00 54 1008.9
20260509123048 46 125 2.0 6.0 0.00 0.00 0.00 57 1009.0
20260509121538 45 75 3.0 8.0 0.00 0.00 0.00 57 1008.9
20260509120034 44 123 3.0 7.0 0.00 0.00 0.00 58 1009.1
20260509114538 43 95 2.0 5.0 0.00 0.00 0.00 61 1009.0
20260509113038 42 94 2.0 5.0 0.00 0.00 0.00 64 1008.9
20260509111538 41 119 2.0 4.0 0.00 0.00 0.00 67 1009.0
20260509110042 40 114 1.0 4.0 0.00 0.00 0.00 68 1008.8
20260509104544 38 61 1.0 4.0 0.00 0.00 0.00 69 1008.8
20260509103034 36 72 0.0 4.0 0.00 0.00 0.00 70 1008.7
20260509101538 36 86 1.0 4.0 0.00 0.00 0.00 70 1008.7
20260509100039 37 105 1.0 4.0 0.00 0.00 0.00 70 1008.7
20260509094538 37 98 1.0 3.0 0.00 0.00 0.00 70 1008.6
20260509093038 38 84 1.0 3.0 0.00 0.00 0.00 69 1008.4
20260509091537 38 93 1.0 3.0 0.00 0.00 0.00 69 1008.5
20260509090040 39 92 1.0 3.0 0.00 0.00 0.00 69 1008.5
20260509084540 39 105 0.0 2.0 0.00 0.00 0.00 69 1008.6
20260509083044 39 0 0.0 1.0 0.00 0.00 0.00 69 1008.6
20260509081543 38 105 0.0 3.0 0.00 0.00 0.00 69 1008.6
20260509080037 39 0 0.0 3.0 0.00 0.00 0.00 69 1008.5
20260509074548 39 115 0.0 3.0 0.00 0.00 0.00 69 1008.4
20260509073039 39 146 1.0 4.0 0.00 0.00 0.00 68 1008.6
20260509071539 40 158 0.0 2.0 0.00 0.00 0.00 68 1008.6
20260509070039 41 179 0.0 2.0 0.00 0.00 0.00 67 1008.6
20260509064538 41 0 0.0 3.0 0.00 0.00 0.00 66 1008.6
20260509063038 42 170 1.0 3.0 0.00 0.00 0.00 66 1008.7
20260509061537 42 179 0.0 3.0 0.00 0.00 0.00 65 1008.5
20260509060035 43 172 1.0 3.0 0.00 0.00 0.00 64 1008.6
20260509054548 43 193 2.0 3.0 0.00 0.00 0.00 63 1008.8
20260509053134 44 220 1.0 4.0 0.00 0.00 0.00 62 1008.9
20260509051546 44 216 1.0 5.0 0.00 0.00 0.00 61 1009.0
20260509050045 45 236 2.0 5.0 0.00 0.00 0.00 59 1009.0